Location: Thompson
(55.7500°N, 97.8670°W)
Time: 01:52:36
(UTC-06:00)

Cosmos 1666 - Visible Passes

Search period start: 08 December 2016 00:00
Search period end: 18 December 2016 00:00
Orbit: 502 x 527 km, 82.5° (Epoch: 07 December)

Date Brightness Start Highest point End Pass type
(mag) Time Alt. Az. Time Alt. Az. Time Alt. Az.
08 Dec 6.1 06:42:23 10° E 06:43:09 11° E 06:43:56 10° ENE visible
08 Dec 3.3 18:01:41 10° N 18:05:15 34° ENE 18:05:23 34° ENE visible
08 Dec 4.6 19:37:30 10° NNW 19:40:34 29° W 19:40:34 29° W visible
09 Dec 3.1 07:58:55 10° S 08:02:39 68° E 08:06:28 10° NNE visible
09 Dec 3.5 17:46:17 10° N 17:49:43 29° ENE 17:53:09 10° SE visible
09 Dec 4.3 19:21:56 10° NNW 19:25:28 34° W 19:28:59 10° SSW visible
10 Dec 3.4 07:43:29 10° S 07:47:11 57° E 07:50:57 10° NNE visible
10 Dec 3.7 17:30:54 10° N 17:34:11 26° ENE 17:37:28 10° ESE visible
10 Dec 4.0 19:06:22 10° NNW 19:10:01 40° W 19:13:40 10° SSW visible
11 Dec 3.8 07:28:05 10° S 07:31:44 48° E 07:35:25 10° NNE visible
11 Dec 3.9 17:15:31 10° N 17:18:38 22° ENE 17:21:44 10° ESE visible
11 Dec 3.7 18:50:50 10° NNW 18:54:34 48° W 18:58:19 10° S visible
12 Dec 4.2 07:12:43 10° SSE 07:16:17 40° E 07:19:53 10° NNE visible
12 Dec 4.0 17:00:10 10° NNE 17:03:04 20° ENE 17:05:58 10° ESE visible
12 Dec 3.3 18:35:17 10° NNW 18:39:07 57° W 18:42:55 10° S visible
13 Dec 4.5 06:57:23 10° SSE 07:00:50 34° E 07:04:19 10° NNE visible
13 Dec 4.2 16:44:51 10° NNE 16:47:29 17° ENE 16:50:09 10° ESE visible
13 Dec 3.0 18:19:46 10° NNW 18:23:39 68° W 18:27:30 10° S visible
14 Dec 4.8 06:42:05 10° SSE 06:45:23 29° E 06:48:44 10° NNE visible
14 Dec 2.8 18:04:16 10° NNW 18:08:10 81° W 18:12:03 10° S visible
14 Dec 6.2 19:42:04 10° WNW 19:43:09 11° W 19:44:14 10° W visible
15 Dec 5.1 06:26:49 10° SE 06:29:57 25° E 06:33:08 10° NNE visible
15 Dec 3.2 08:01:55 10° SW 08:05:29 39° WNW 08:09:08 10° N visible
15 Dec 2.6 17:48:46 10° NNW 17:52:41 85° E 17:56:35 10° SSE visible
15 Dec 6.0 19:25:58 10° NW 19:27:46 13° W 19:29:32 10° WSW visible
16 Dec 5.3 06:11:36 10° SE 06:14:32 21° E 06:17:30 10° NE visible
16 Dec 3.0 07:46:18 10° SSW 07:49:57 46° WNW 07:53:41 10° N visible
16 Dec 2.6 17:33:16 10° N 17:37:11 72° ENE 17:41:04 10° SSE visible
16 Dec 5.9 19:10:06 10° NW 19:12:21 15° W 19:14:37 10° WSW visible
17 Dec 5.6 05:56:25 10° SE 05:59:07 19° E 06:01:49 10° NE visible
17 Dec 2.8 07:30:42 10° SSW 07:34:26 54° WNW 07:38:14 10° N visible
17 Dec 2.7 17:17:47 10° N 17:21:40 61° ENE 17:25:32 10° SSE visible
17 Dec 5.7 18:54:20 10° NW 18:56:57 17° W 18:59:34 10° SW visible
